{"data":{"norad_id":57107,"intl_designator":"2023-090G","name":"STARLINK-6131","alt_names":[],"object_type":"PAYLOAD","status":"ACTIVE","operator":null,"country":"US","launch_date":"2023-06-23","launch_site_code":"AFETR","launch_vehicle":null,"mission":null,"orbit_class":"UNKNOWN","rcs_meters":null,"size_class":null,"mass_kg":null,"dimensions":null,"purposes":["comms"],"wikipedia_slug":null,"has_3d_model":false,"image_url":null,"decayed_at":null,"tle_current":{"epoch":"2026-05-24T06:19:45.612768Z","epoch_age_seconds":132603,"freshness":"FRESH","line1":"1 57107U 23090G   26144.26372237  .00000554  00000+0  29650-4 0  9992","line2":"2 57107  43.0030 214.4795 0001808 274.8852  85.1793 15.27577607161892","mean_motion":15.27577607,"eccentricity":0.0001808,"inclination_deg":43.003,"raan_deg":214.4795,"arg_perigee_deg":274.8852,"mean_anomaly_deg":85.1793,"bstar":2.965e-5,"rev_number":16189,"period_min":94.266896385579,"perigee_km":481.8157578102,"apogee_km":484.29676529357,"semimajor_km":6861.1932615519,"source":"CELESTRAK","updated_at":"2026-05-25T13:38:18.240395Z"}}}